TimeCDT,TemperatureF,Dew PointF,Humidity,Sea Level PressureIn,VisibilityMPH,Wind Direction,Wind SpeedMPH,Gust SpeedMPH,PrecipitationIn,Events,Conditions,WindDirDegrees,DateUTC
12:53 AM,45.0,36.0,71,29.90,10.0,SSW,6.9,-,N/A,,Overcast,200,2013-10-17 05:53:00
1:53 AM,45.0,36.0,71,29.89,10.0,SSW,8.1,-,N/A,,Clear,210,2013-10-17 06:53:00
2:53 AM,43.0,35.1,74,29.89,10.0,SSW,8.1,-,N/A,,Clear,210,2013-10-17 07:53:00
3:53 AM,41.0,34.0,76,29.87,10.0,SSW,4.6,-,N/A,,Clear,210,2013-10-17 08:53:00
4:53 AM,39.0,34.0,82,29.86,10.0,WSW,4.6,-,N/A,,Clear,240,2013-10-17 09:53:00
5:53 AM,37.9,33.1,83,29.87,10.0,West,8.1,-,N/A,,Clear,270,2013-10-17 10:53:00
6:53 AM,37.0,33.1,86,29.87,10.0,West,9.2,-,N/A,,Clear,270,2013-10-17 11:53:00
7:53 AM,36.0,33.1,89,29.89,10.0,West,6.9,-,N/A,,Clear,280,2013-10-17 12:53:00
8:53 AM,39.0,35.1,86,29.92,10.0,West,8.1,-,N/A,,Unknown,280,2013-10-17 13:53:00
9:53 AM,44.1,39.9,85,29.93,10.0,NW,12.7,-,N/A,,Clear,320,2013-10-17 14:53:00
10:13 AM,44.6,41.0,87,29.92,10.0,NW,15.0,-,N/A,,Mostly Cloudy,320,2013-10-17 15:13:00
10:53 AM,46.9,42.1,83,29.95,10.0,NNW,18.4,24.2,N/A,,Overcast,330,2013-10-17 15:53:00
11:02 AM,46.4,42.8,87,29.93,10.0,NNW,18.4,-,N/A,,Overcast,330,2013-10-17 16:02:00
11:53 AM,46.9,42.1,83,29.97,10.0,NNW,16.1,24.2,N/A,,Overcast,330,2013-10-17 16:53:00
12:53 PM,45.0,41.0,86,29.99,10.0,NW,20.7,28.8,0.00,Rain,Light Rain,320,2013-10-17 17:53:00
1:12 PM,44.6,42.8,93,29.97,4.0,NW,21.9,27.6,0.02,Rain,Rain,320,2013-10-17 18:12:00
1:21 PM,42.8,41.0,93,29.98,5.0,NW,19.6,27.6,0.03,Rain,Light Rain,310,2013-10-17 18:21:00
1:46 PM,42.8,39.2,87,29.99,10.0,NW,18.4,29.9,0.03,Rain,Light Rain,320,2013-10-17 18:46:00
1:53 PM,42.1,39.0,89,30.01,10.0,NNW,21.9,29.9,0.03,Rain,Light Rain,330,2013-10-17 18:53:00
2:53 PM,42.1,39.0,89,30.02,10.0,NW,20.7,27.6,0.01,Rain,Light Rain,320,2013-10-17 19:53:00
3:53 PM,43.0,39.0,86,30.03,10.0,NW,17.3,-,0.00,,Overcast,320,2013-10-17 20:53:00
4:27 PM,42.8,39.2,87,30.00,10.0,NNW,16.1,-,N/A,,Overcast,330,2013-10-17 21:27:00
4:53 PM,44.1,39.0,82,30.03,10.0,NW,15.0,-,N/A,,Overcast,310,2013-10-17 21:53:00
5:53 PM,42.1,39.0,89,30.05,10.0,NW,16.1,-,0.02,Rain,Light Rain,320,2013-10-17 22:53:00
6:53 PM,41.0,37.9,89,30.07,10.0,NW,11.5,-,0.00,,Overcast,320,2013-10-17 23:53:00
7:53 PM,42.1,37.9,85,30.09,10.0,WNW,11.5,-,N/A,,Overcast,300,2013-10-18 00:53:00
8:53 PM,41.0,36.0,82,30.09,10.0,NW,10.4,-,N/A,,Overcast,310,2013-10-18 01:53:00
9:53 PM,39.0,34.0,82,30.10,10.0,WNW,9.2,-,N/A,,Overcast,290,2013-10-18 02:53:00
10:53 PM,37.9,32.0,79,30.09,10.0,WNW,9.2,-,N/A,,Clear,290,2013-10-18 03:53:00
11:53 PM,36.0,30.9,82,30.09,10.0,West,8.1,-,N/A,,Clear,280,2013-10-18 04:53:00